Time,TemperatureF,DewpointF,PressureIn,WindDirection,WindDirectionDegrees,WindSpeedMPH,WindSpeedGustMPH,Humidity,HourlyPrecipIn,Conditions,Clouds,dailyrainin,SoftwareType,DateUTC
2013-03-26 00:03:00,23.3,5.1,29.96,WNW,302,0.0,1.0,45,0.00,CLR,CLR,0.00,WeatherDisplay:10.34,2013-03-26 06:03:00,
2013-03-26 00:08:00,23.2,5.0,29.96,WNW,302,1.0,2.0,45,0.00,CLR,CLR,0.00,WeatherDisplay:10.34,2013-03-26 06:08:00,
2013-03-26 00:13:00,23.2,5.0,29.96,WNW,302,0.0,1.0,45,0.00,CLR,CLR,0.00,WeatherDisplay:10.34,2013-03-26 06:13:00,
2013-03-26 00:18:00,23.2,5.0,29.96,WNW,302,0.0,1.0,45,0.00,CLR,CLR,0.00,WeatherDisplay:10.34,2013-03-26 06:18:00,
2013-03-26 00:23:00,23.1,5.4,29.95,WNW,302,1.0,2.0,46,0.00,CLR,CLR,0.00,WeatherDisplay:10.34,2013-03-26 06:23:00,
2013-03-26 00:28:00,22.9,3.7,29.95,WNW,302,0.0,1.0,43,0.00,CLR,CLR,0.00,WeatherDisplay:10.34,2013-03-26 06:28:00,
2013-03-26 00:33:00,22.7,2.5,29.95,WNW,302,0.0,0.0,41,0.00,CLR,CLR,0.00,WeatherDisplay:10.34,2013-03-26 06:33:00,
2013-03-26 00:38:00,22.5,3.8,29.95,WSW,255,1.0,1.0,44,0.00,CLR,CLR,0.00,WeatherDisplay:10.34,2013-03-26 06:38:00,
2013-03-26 00:43:00,22.2,2.0,29.95,WSW,255,0.0,1.0,41,0.00,CLR,CLR,0.00,WeatherDisplay:10.34,2013-03-26 06:43:00,
2013-03-26 00:48:00,21.7,2.1,29.95,WSW,255,0.0,1.0,42,0.00,CLR,CLR,0.00,WeatherDisplay:10.34,2013-03-26 06:48:00,
2013-03-26 00:53:00,21.3,2.2,29.95,WSW,255,2.0,2.0,43,0.00,CLR,CLR,0.00,WeatherDisplay:10.34,2013-03-26 06:53:00,
2013-03-26 00:59:00,20.9,2.4,29.95,SSW,213,5.0,7.0,44,0.00,CLR,CLR,0.00,WeatherDisplay:10.34,2013-03-26 06:59:00,
2013-03-26 01:04:00,20.9,3.8,29.95,SSW,213,2.0,2.0,47,0.00,CLR,CLR,0.00,WeatherDisplay:10.34,2013-03-26 07:04:00,
2013-03-26 01:09:00,20.8,3.2,29.95,WNW,290,0.0,1.0,46,0.00,CLR,CLR,0.00,WeatherDisplay:10.34,2013-03-26 07:09:00,
2013-03-26 01:14:00,20.9,3.8,29.94,WNW,290,1.0,1.0,47,0.00,CLR,CLR,0.00,WeatherDisplay:10.34,2013-03-26 07:14:00,
2013-03-26 01:19:00,20.9,2.9,29.94,WNW,290,1.0,2.0,45,0.00,CLR,CLR,0.00,WeatherDisplay:10.34,2013-03-26 07:19:00,
2013-03-26 01:24:00,20.8,3.7,29.94,WSW,242,2.0,2.0,47,0.00,CLR,CLR,0.00,WeatherDisplay:10.34,2013-03-26 07:24:00,
2013-03-26 01:29:00,20.9,3.8,29.94,WSW,242,2.0,2.0,47,0.00,CLR,CLR,0.00,WeatherDisplay:10.34,2013-03-26 07:29:00,
2013-03-26 01:34:00,20.9,3.3,29.93,WSW,242,0.0,0.0,46,0.00,CLR,CLR,0.00,WeatherDisplay:10.34,2013-03-26 07:34:00,
2013-03-26 01:39:00,20.8,0.8,29.93,WSW,242,0.0,1.0,41,0.00,CLR,CLR,0.00,WeatherDisplay:10.34,2013-03-26 07:39:00,
2013-03-26 01:44:00,20.5,1.0,29.93,SW,226,3.0,5.0,42,0.00,CLR,CLR,0.00,WeatherDisplay:10.34,2013-03-26 07:44:00,
2013-03-26 01:49:00,20.3,2.3,29.93,SW,226,5.0,5.0,45,0.00,CLR,CLR,0.00,WeatherDisplay:10.34,2013-03-26 07:49:00,
2013-03-26 01:54:00,20.2,3.2,29.93,WSW,242,0.0,2.0,47,0.00,CLR,CLR,0.00,WeatherDisplay:10.34,2013-03-26 07:54:00,
2013-03-26 01:59:00,20.3,2.3,29.93,WSW,242,1.0,1.0,45,0.00,CLR,CLR,0.00,WeatherDisplay:10.34,2013-03-26 07:59:00,
2013-03-26 02:04:00,20.3,3.7,29.93,WSW,243,3.0,3.0,48,0.00,CLR,CLR,0.00,WeatherDisplay:10.34,2013-03-26 08:04:00,
2013-03-26 02:09:00,20.5,4.3,29.93,WSW,243,1.0,1.0,49,0.00,CLR,CLR,0.00,WeatherDisplay:10.34,2013-03-26 08:09:00,
2013-03-26 02:14:00,20.5,2.0,29.93,WSW,242,0.0,0.0,44,0.00,CLR,CLR,0.00,WeatherDisplay:10.34,2013-03-26 08:14:00,
2013-03-26 02:19:00,20.4,0.9,29.93,WSW,243,0.0,0.0,42,0.00,CLR,CLR,0.00,WeatherDisplay:10.34,2013-03-26 08:19:00,
2013-03-26 02:24:00,20.0,0.0,29.93,WSW,243,1.0,2.0,41,0.00,CLR,CLR,0.00,WeatherDisplay:10.34,2013-03-26 08:24:00,
2013-03-26 02:29:00,19.7,0.3,29.93,South,172,0.0,1.0,42,0.00,CLR,CLR,0.00,WeatherDisplay:10.34,2013-03-26 08:29:00,
2013-03-26 02:34:00,19.7,1.3,29.92,South,172,0.0,0.0,44,0.00,CLR,CLR,0.00,WeatherDisplay:10.34,2013-03-26 08:34:00,
2013-03-26 02:39:00,19.5,0.6,29.92,South,172,2.0,2.0,43,0.00,CLR,CLR,0.00,WeatherDisplay:10.34,2013-03-26 08:39:00,
2013-03-26 02:44:00,19.3,0.4,29.92,South,172,2.0,2.0,43,0.00,CLR,CLR,0.00,WeatherDisplay:10.34,2013-03-26 08:44:00,
2013-03-26 02:49:00,19.1,1.7,29.92,South,172,2.0,3.0,46,0.00,CLR,CLR,0.00,WeatherDisplay:10.34,2013-03-26 08:49:00,
2013-03-26 02:54:00,19.1,2.6,29.92,South,173,0.0,0.0,48,0.00,CLR,CLR,0.00,WeatherDisplay:10.34,2013-03-26 08:54:00,
2013-03-26 02:59:00,19.4,3.3,29.92,South,178,1.0,0.0,49,0.00,CLR,CLR,0.00,WeatherDisplay:10.34,2013-03-26 08:59:00,
2013-03-26 03:04:00,19.7,4.0,29.92,South,178,0.0,0.0,50,0.00,CLR,CLR,0.00,WeatherDisplay:10.34,2013-03-26 09:04:00,
2013-03-26 03:09:00,19.7,2.2,29.92,South,178,1.0,2.0,46,0.00,CLR,CLR,0.00,WeatherDisplay:10.34,2013-03-26 09:09:00,
2013-03-26 03:14:00,20.1,3.5,29.91,SW,221,5.0,5.0,48,0.00,CLR,CLR,0.00,WeatherDisplay:10.34,2013-03-26 09:14:00,
2013-03-26 03:19:00,20.3,2.8,29.91,SW,229,7.0,7.0,46,0.00,CLR,CLR,0.00,WeatherDisplay:10.34,2013-03-26 09:19:00,
2013-03-26 03:24:00,20.9,3.3,29.91,SW,229,2.0,3.0,46,0.00,CLR,CLR,0.00,WeatherDisplay:10.34,2013-03-26 09:24:00,
2013-03-26 03:29:00,21.2,3.1,29.91,ESE,102,0.0,1.0,45,0.00,CLR,CLR,0.00,WeatherDisplay:10.34,2013-03-26 09:29:00,
2013-03-26 03:34:00,21.4,3.8,29.91,ESE,102,1.0,1.0,46,0.00,CLR,CLR,0.00,WeatherDisplay:10.34,2013-03-26 09:34:00,
2013-03-26 03:39:00,21.5,3.9,29.91,ESE,102,0.0,0.0,46,0.00,CLR,CLR,0.00,WeatherDisplay:10.34,2013-03-26 09:39:00,
2013-03-26 03:44:00,21.6,4.0,29.91,SSE,148,0.0,1.0,46,0.00,CLR,CLR,0.00,WeatherDisplay:10.34,2013-03-26 09:44:00,
2013-03-26 03:49:00,21.7,4.5,29.91,NW,312,1.0,1.0,47,0.00,CLR,CLR,0.00,WeatherDisplay:10.34,2013-03-26 09:49:00,
2013-03-26 03:54:00,21.7,5.0,29.90,NW,313,2.0,2.0,48,0.00,CLR,CLR,0.00,WeatherDisplay:10.34,2013-03-26 09:54:00,
2013-03-26 03:59:00,21.6,4.9,29.90,NW,313,2.0,2.0,48,0.00,CLR,CLR,0.00,WeatherDisplay:10.34,2013-03-26 09:59:00,
2013-03-26 04:04:00,21.6,5.4,29.90,NW,313,0.0,0.0,49,0.00,CLR,CLR,0.00,WeatherDisplay:10.34,2013-03-26 10:04:00,
2013-03-26 04:09:00,21.8,5.5,29.90,NW,313,3.0,3.0,49,0.00,CLR,CLR,0.00,WeatherDisplay:10.34,2013-03-26 10:09:00,
2013-03-26 04:14:00,22.0,5.7,29.90,ENE,60,3.0,3.0,49,0.00,CLR,CLR,0.00,WeatherDisplay:10.34,2013-03-26 10:14:00,
2013-03-26 04:19:00,22.1,5.8,29.90,ENE,64,0.0,1.0,49,0.00,CLR,CLR,0.00,WeatherDisplay:10.34,2013-03-26 10:19:00,
2013-03-26 04:24:00,22.3,6.0,29.90,NNW,345,3.0,3.0,49,0.00,CLR,CLR,0.00,WeatherDisplay:10.34,2013-03-26 10:24:00,
2013-03-26 04:29:00,22.2,5.9,29.90,NNW,345,1.0,1.0,49,0.00,CLR,CLR,0.00,WeatherDisplay:10.34,2013-03-26 10:29:00,
2013-03-26 04:34:00,22.2,6.4,29.90,NNW,345,1.0,1.0,50,0.00,CLR,CLR,0.00,WeatherDisplay:10.34,2013-03-26 10:34:00,
2013-03-26 04:39:00,22.2,5.9,29.90,NNW,345,0.0,0.0,49,0.00,CLR,CLR,0.00,WeatherDisplay:10.34,2013-03-26 10:39:00,
2013-03-26 04:44:00,22.2,5.9,29.90,NNW,345,0.0,0.0,49,0.00,CLR,CLR,0.00,WeatherDisplay:10.34,2013-03-26 10:44:00,
2013-03-26 04:49:00,22.2,5.9,29.90,NNW,345,0.0,0.0,49,0.00,CLR,CLR,0.00,WeatherDisplay:10.34,2013-03-26 10:49:00,
2013-03-26 04:54:00,22.1,6.3,29.90,NNW,345,1.0,1.0,50,0.00,CLR,CLR,0.00,WeatherDisplay:10.34,2013-03-26 10:54:00,
2013-03-26 04:59:00,22.0,6.2,29.90,NNW,345,1.0,1.0,50,0.00,CLR,CLR,0.00,WeatherDisplay:10.34,2013-03-26 10:59:00,
2013-03-26 05:04:00,22.0,6.2,29.90,WSW,244,0.0,1.0,50,0.00,CLR,CLR,0.00,WeatherDisplay:10.34,2013-03-26 11:04:00,
2013-03-26 05:09:00,22.0,6.2,29.90,West,262,2.0,3.0,50,0.00,CLR,CLR,0.00,WeatherDisplay:10.34,2013-03-26 11:09:00,
2013-03-26 05:14:00,22.0,6.2,29.90,West,262,4.0,5.0,50,0.00,CLR,CLR,0.00,WeatherDisplay:10.34,2013-03-26 11:14:00,
2013-03-26 05:19:00,22.0,6.6,29.90,WNW,298,5.0,5.0,51,0.00,CLR,CLR,0.00,WeatherDisplay:10.34,2013-03-26 11:19:00,
2013-03-26 05:24:00,22.3,6.9,29.90,WNW,294,2.0,2.0,51,0.00,CLR,CLR,0.00,WeatherDisplay:10.34,2013-03-26 11:24:00,
2013-03-26 05:29:00,22.6,6.7,29.90,WNW,293,0.0,1.0,50,0.00,CLR,CLR,0.00,WeatherDisplay:10.34,2013-03-26 11:29:00,
2013-03-26 05:34:00,22.7,6.8,29.90,WNW,292,1.0,1.0,50,0.00,CLR,CLR,0.00,WeatherDisplay:10.34,2013-03-26 11:34:00,
2013-03-26 05:39:00,22.9,7.0,29.90,WNW,293,0.0,1.0,50,0.00,CLR,CLR,0.00,WeatherDisplay:10.34,2013-03-26 11:39:00,
2013-03-26 05:44:00,23.0,7.1,29.90,WNW,293,0.0,1.0,50,0.00,CLR,CLR,0.00,WeatherDisplay:10.34,2013-03-26 11:44:00,
2013-03-26 05:49:00,23.0,6.7,29.90,WNW,294,4.0,4.0,49,0.00,CLR,CLR,0.00,WeatherDisplay:10.34,2013-03-26 11:49:00,
2013-03-26 05:54:00,22.9,6.6,29.90,WNW,294,0.0,1.0,49,0.00,CLR,CLR,0.00,WeatherDisplay:10.34,2013-03-26 11:54:00,
2013-03-26 05:59:00,22.8,6.9,29.90,WNW,294,3.0,3.0,50,0.00,CLR,CLR,0.00,WeatherDisplay:10.34,2013-03-26 11:59:00,
2013-03-26 06:04:00,22.9,7.4,29.90,WNW,295,3.0,3.0,51,0.00,CLR,CLR,0.00,WeatherDisplay:10.34,2013-03-26 12:04:00,
2013-03-26 06:09:00,23.0,7.5,29.90,WNW,295,1.0,1.0,51,0.00,CLR,CLR,0.00,WeatherDisplay:10.34,2013-03-26 12:09:00,
2013-03-26 06:14:00,23.1,7.6,29.90,WNW,295,1.0,2.0,51,0.00,CLR,CLR,0.00,WeatherDisplay:10.34,2013-03-26 12:14:00,
2013-03-26 06:19:00,23.1,7.2,29.90,WNW,295,3.0,3.0,50,0.00,CLR,CLR,0.00,WeatherDisplay:10.34,2013-03-26 12:19:00,
2013-03-26 06:24:00,23.0,7.1,29.90,WNW,295,2.0,2.0,50,0.00,CLR,CLR,0.00,WeatherDisplay:10.34,2013-03-26 12:24:00,
2013-03-26 06:29:00,23.1,6.7,29.90,WNW,296,1.0,1.0,49,0.00,CLR,CLR,0.00,WeatherDisplay:10.34,2013-03-26 12:29:00,
2013-03-26 06:34:00,23.1,6.7,29.90,WNW,296,3.0,3.0,49,0.00,CLR,CLR,0.00,WeatherDisplay:10.34,2013-03-26 12:34:00,
2013-03-26 06:39:00,23.2,6.8,29.90,WNW,296,2.0,2.0,49,0.00,CLR,CLR,0.00,WeatherDisplay:10.34,2013-03-26 12:39:00,
2013-03-26 06:44:00,23.3,6.5,29.90,WNW,296,1.0,1.0,48,0.00,CLR,CLR,0.00,WeatherDisplay:10.34,2013-03-26 12:44:00,
2013-03-26 06:49:00,23.3,6.5,29.90,WNW,296,0.0,0.0,48,0.00,CLR,CLR,0.00,WeatherDisplay:10.34,2013-03-26 12:49:00,
2013-03-26 06:54:00,23.3,6.5,29.90,WNW,296,2.0,2.0,48,0.00,CLR,CLR,0.00,WeatherDisplay:10.34,2013-03-26 12:54:00,
2013-03-26 06:59:00,23.3,6.5,29.90,WNW,296,2.0,2.0,48,0.00,CLR,CLR,0.00,WeatherDisplay:10.34,2013-03-26 12:59:00,
2013-03-26 07:04:00,23.4,7.0,29.90,North,355,2.0,2.0,49,0.00,OVC,OVC,0.00,WeatherDisplay:10.34,2013-03-26 13:04:00,
2013-03-26 07:09:00,23.5,7.1,29.90,NNE,30,6.0,7.0,49,0.00,OVC,OVC,0.00,WeatherDisplay:10.34,2013-03-26 13:09:00,
2013-03-26 07:14:00,23.9,7.5,29.90,NNE,20,1.0,1.0,49,0.00,OVC,OVC,0.00,WeatherDisplay:10.34,2013-03-26 13:14:00,
2013-03-26 07:19:00,23.9,7.0,29.90,NW,321,2.0,2.0,48,0.00,CLR,CLR,0.00,WeatherDisplay:10.34,2013-03-26 13:19:00,
2013-03-26 07:24:00,23.8,7.4,29.91,NNE,31,3.0,5.0,49,0.00,FEW,FEW,0.00,WeatherDisplay:10.34,2013-03-26 13:24:00,
2013-03-26 07:30:00,23.9,7.5,29.91,NNE,30,0.0,0.0,49,0.00,SCT,SCT,0.00,WeatherDisplay:10.34,2013-03-26 13:30:00,
2013-03-26 07:35:00,23.9,7.5,29.91,NNE,30,0.0,0.0,49,0.00,SCT,SCT,0.00,WeatherDisplay:10.34,2013-03-26 13:35:00,
2013-03-26 07:40:00,24.0,7.1,29.91,NNE,30,0.0,0.0,48,0.00,SCT,SCT,0.00,WeatherDisplay:10.34,2013-03-26 13:40:00,
2013-03-26 07:45:00,24.0,7.1,29.91,NNE,30,1.0,1.0,48,0.00,SCT,SCT,0.00,WeatherDisplay:10.34,2013-03-26 13:45:00,
2013-03-26 07:50:00,24.0,7.6,29.91,NNE,30,1.0,2.0,49,0.00,SCT,SCT,0.00,WeatherDisplay:10.34,2013-03-26 13:50:00,
2013-03-26 07:55:00,24.2,7.8,29.91,West,279,1.0,3.0,49,0.00,SCT,SCT,0.00,WeatherDisplay:10.34,2013-03-26 13:55:00,
2013-03-26 08:00:00,24.5,8.0,29.91,WNW,292,1.0,2.0,49,0.00,SCT,SCT,0.00,WeatherDisplay:10.34,2013-03-26 14:00:00,
2013-03-26 08:05:00,24.9,8.4,29.91,WNW,292,2.0,3.0,49,0.00,SCT,SCT,0.00,WeatherDisplay:10.34,2013-03-26 14:05:00,
2013-03-26 08:10:00,25.4,7.9,29.91,WNW,291,3.0,3.0,47,0.00,SCT,SCT,0.00,WeatherDisplay:10.34,2013-03-26 14:10:00,
2013-03-26 08:15:00,25.7,7.7,29.91,WNW,292,1.0,1.0,46,0.00,BKN,BKN,0.00,WeatherDisplay:10.34,2013-03-26 14:15:00,
2013-03-26 08:20:00,26.0,8.0,29.91,WNW,292,0.0,1.0,46,0.00,BKN,BKN,0.00,WeatherDisplay:10.34,2013-03-26 14:20:00,
2013-03-26 08:25:00,26.3,8.3,29.91,WNW,293,4.0,5.0,46,0.00,BKN,BKN,0.00,WeatherDisplay:10.34,2013-03-26 14:25:00,
2013-03-26 08:30:00,26.7,8.2,29.91,WNW,293,2.0,2.0,45,0.00,BKN,BKN,0.00,WeatherDisplay:10.34,2013-03-26 14:30:00,
2013-03-26 08:35:00,27.1,8.5,29.91,NNW,346,3.0,3.0,45,0.00,OVC,OVC,0.00,WeatherDisplay:10.34,2013-03-26 14:35:00,
2013-03-26 08:40:00,27.2,8.6,29.91,NNW,347,0.0,1.0,45,0.00,OVC,OVC,0.00,WeatherDisplay:10.34,2013-03-26 14:40:00,
2013-03-26 08:45:00,27.6,8.5,29.92,North,355,1.0,3.0,44,0.00,BKN,BKN,0.00,WeatherDisplay:10.34,2013-03-26 14:45:00,
2013-03-26 08:50:00,27.8,8.7,29.92,North,355,2.0,2.0,44,0.00,BKN,BKN,0.00,WeatherDisplay:10.34,2013-03-26 14:50:00,
2013-03-26 08:55:00,28.1,9.0,29.91,NNE,17,2.0,2.0,44,0.00,BKN,BKN,0.00,WeatherDisplay:10.34,2013-03-26 14:55:00,
2013-03-26 09:00:00,28.6,9.4,29.91,NNE,21,4.0,5.0,44,0.00,BKN,BKN,0.00,WeatherDisplay:10.34,2013-03-26 15:00:00,
2013-03-26 09:05:00,28.9,9.2,29.93,NNE,17,1.0,1.0,43,0.00,BKN,BKN,0.00,WeatherDisplay:10.34,2013-03-26 15:05:00,
2013-03-26 09:10:00,29.3,9.5,29.93,NE,53,2.0,2.0,43,0.00,BKN,BKN,0.00,WeatherDisplay:10.34,2013-03-26 15:10:00,
2013-03-26 09:15:00,29.6,9.3,29.93,NNE,24,0.0,1.0,42,0.00,BKN,BKN,0.00,WeatherDisplay:10.34,2013-03-26 15:15:00,
2013-03-26 09:20:00,29.8,9.5,29.93,NNE,21,1.0,1.0,42,0.00,BKN,BKN,0.00,WeatherDisplay:10.34,2013-03-26 15:20:00,
2013-03-26 09:25:00,30.1,9.7,29.93,NE,55,1.0,2.0,42,0.00,BKN,BKN,0.00,WeatherDisplay:10.34,2013-03-26 15:25:00,
2013-03-26 09:30:00,30.4,9.5,29.93,North,360,3.0,0.0,41,0.00,BKN,BKN,0.00,WeatherDisplay:10.34,2013-03-26 15:30:00,
2013-03-26 09:35:00,30.5,9.6,29.92,NE,53,5.0,7.0,41,0.00,BKN,BKN,0.00,WeatherDisplay:10.34,2013-03-26 15:35:00,
2013-03-26 09:40:00,30.7,9.7,29.92,NE,44,2.0,2.0,41,0.00,BKN,BKN,0.00,WeatherDisplay:10.34,2013-03-26 15:40:00,
2013-03-26 09:45:00,30.9,9.9,29.92,North,5,1.0,3.0,41,0.00,BKN,BKN,0.00,WeatherDisplay:10.34,2013-03-26 15:45:00,
2013-03-26 09:50:00,31.2,10.2,29.92,ENE,60,0.0,1.0,41,0.00,BKN,BKN,0.00,WeatherDisplay:10.34,2013-03-26 15:50:00,
2013-03-26 09:55:00,31.4,9.8,29.92,East,96,2.0,3.0,40,0.00,BKN,BKN,0.00,WeatherDisplay:10.34,2013-03-26 15:55:00,
2013-03-26 10:00:00,31.5,9.9,29.91,East,85,0.0,1.0,40,0.00,SCT,SCT,0.00,WeatherDisplay:10.34,2013-03-26 16:00:00,
2013-03-26 10:05:00,32.1,10.5,29.91,North,349,3.0,3.0,40,0.00,CLR,CLR,0.00,WeatherDisplay:10.34,2013-03-26 16:05:00,
2013-03-26 10:10:00,33.3,11.5,29.92,NNE,13,3.0,3.0,40,0.00,CLR,CLR,0.00,WeatherDisplay:10.34,2013-03-26 16:10:00,
2013-03-26 10:15:00,34.4,11.4,29.92,NNE,21,6.0,8.0,38,0.00,CLR,CLR,0.00,WeatherDisplay:10.34,2013-03-26 16:15:00,
2013-03-26 10:20:00,35.5,12.4,29.92,East,93,3.0,0.0,38,0.00,CLR,CLR,0.00,WeatherDisplay:10.34,2013-03-26 16:20:00,
2013-03-26 10:25:00,36.7,12.8,29.92,NE,54,2.0,2.0,37,0.00,CLR,CLR,0.00,WeatherDisplay:10.34,2013-03-26 16:25:00,
2013-03-26 10:30:00,37.5,12.9,29.92,NE,34,4.0,0.0,36,0.00,CLR,CLR,0.00,WeatherDisplay:10.34,2013-03-26 16:30:00,
2013-03-26 10:35:00,38.1,12.8,29.92,SE,134,2.0,3.0,35,0.00,CLR,CLR,0.00,WeatherDisplay:10.34,2013-03-26 16:35:00,
2013-03-26 10:40:00,38.7,12.7,29.92,East,80,4.0,4.0,34,0.00,CLR,CLR,0.00,WeatherDisplay:10.34,2013-03-26 16:40:00,
2013-03-26 10:45:00,39.3,13.2,29.92,East,99,6.0,8.0,34,0.00,CLR,CLR,0.00,WeatherDisplay:10.34,2013-03-26 16:45:00,
2013-03-26 10:50:00,39.8,13.0,29.92,NE,54,3.0,5.0,33,0.00,CLR,CLR,0.00,WeatherDisplay:10.34,2013-03-26 16:50:00,
2013-03-26 10:55:00,40.4,12.8,29.92,ENE,65,8.0,8.0,32,0.00,CLR,CLR,0.00,WeatherDisplay:10.34,2013-03-26 16:55:00,
2013-03-26 11:00:00,40.8,13.2,29.92,East,79,5.0,7.0,32,0.00,CLR,CLR,0.00,WeatherDisplay:10.34,2013-03-26 17:00:00,
2013-03-26 11:05:00,41.1,13.4,29.92,ENE,76,2.0,5.0,32,0.00,CLR,CLR,0.00,WeatherDisplay:10.34,2013-03-26 17:05:00,
2013-03-26 11:10:00,41.6,13.9,29.92,East,80,3.0,3.0,32,0.00,CLR,CLR,0.00,WeatherDisplay:10.34,2013-03-26 17:10:00,
2013-03-26 11:15:00,41.9,13.4,29.92,ESE,123,2.0,3.0,31,0.00,CLR,CLR,0.00,WeatherDisplay:10.34,2013-03-26 17:15:00,
2013-03-26 11:20:00,41.8,13.3,29.92,SE,140,6.0,6.0,31,0.00,CLR,CLR,0.00,WeatherDisplay:10.34,2013-03-26 17:20:00,
2013-03-26 11:25:00,41.8,14.1,29.91,SE,144,1.0,2.0,32,0.00,CLR,CLR,0.00,WeatherDisplay:10.34,2013-03-26 17:25:00,
2013-03-26 11:30:00,42.5,13.9,29.91,ESE,109,5.0,5.0,31,0.00,CLR,CLR,0.00,WeatherDisplay:10.34,2013-03-26 17:30:00,
2013-03-26 11:35:00,43.0,14.4,29.91,ENE,59,3.0,3.0,31,0.00,CLR,CLR,0.00,WeatherDisplay:10.34,2013-03-26 17:35:00,
2013-03-26 11:40:00,43.9,14.4,29.91,SE,138,3.0,0.0,30,0.00,CLR,CLR,0.00,WeatherDisplay:10.34,2013-03-26 17:40:00,
2013-03-26 11:45:00,44.5,14.9,29.91,NW,305,1.0,2.0,30,0.00,CLR,CLR,0.00,WeatherDisplay:10.34,2013-03-26 17:45:00,
2013-03-26 11:50:00,45.1,14.7,29.91,ENE,78,4.0,4.0,29,0.00,CLR,CLR,0.00,WeatherDisplay:10.34,2013-03-26 17:50:00,
2013-03-26 11:55:00,45.6,14.3,29.90,East,84,4.0,4.0,28,0.00,CLR,CLR,0.00,WeatherDisplay:10.34,2013-03-26 17:55:00,
2013-03-26 12:00:00,46.1,14.8,29.90,NE,44,2.0,5.0,28,0.00,CLR,CLR,0.00,WeatherDisplay:10.34,2013-03-26 18:00:00,
2013-03-26 12:05:00,46.8,15.4,29.90,East,97,5.0,8.0,28,0.00,CLR,CLR,0.00,WeatherDisplay:10.34,2013-03-26 18:05:00,
2013-03-26 12:10:00,46.9,14.6,29.90,ENE,71,9.0,9.0,27,0.00,CLR,CLR,0.00,WeatherDisplay:10.34,2013-03-26 18:10:00,
2013-03-26 12:15:00,47.2,14.9,29.89,ENE,75,6.0,9.0,27,0.00,CLR,CLR,0.00,WeatherDisplay:10.34,2013-03-26 18:15:00,
2013-03-26 12:20:00,47.4,15.0,29.89,NE,36,2.0,0.0,27,0.00,CLR,CLR,0.00,WeatherDisplay:10.34,2013-03-26 18:20:00,
2013-03-26 12:25:00,47.6,16.1,29.89,NE,54,5.0,5.0,28,0.00,CLR,CLR,0.00,WeatherDisplay:10.34,2013-03-26 18:25:00,
2013-03-26 12:30:00,48.2,15.7,29.89,ENE,69,3.0,9.0,27,0.00,CLR,CLR,0.00,WeatherDisplay:10.34,2013-03-26 18:30:00,
2013-03-26 12:35:00,48.6,16.1,29.89,ENE,59,7.0,13.0,27,0.00,CLR,CLR,0.00,WeatherDisplay:10.34,2013-03-26 18:35:00,
2013-03-26 12:40:00,48.8,14.5,29.89,NNE,25,5.0,8.0,25,0.00,CLR,CLR,0.00,WeatherDisplay:10.34,2013-03-26 18:40:00,
2013-03-26 12:45:00,48.9,15.5,29.89,NE,42,3.0,7.0,26,0.00,CLR,CLR,0.00,WeatherDisplay:10.34,2013-03-26 18:45:00,
2013-03-26 12:50:00,49.4,15.0,29.89,ENE,65,8.0,9.0,25,0.00,CLR,CLR,0.00,WeatherDisplay:10.34,2013-03-26 18:50:00,
2013-03-26 12:55:00,49.3,14.0,29.88,ENE,76,3.0,3.0,24,0.00,CLR,CLR,0.00,WeatherDisplay:10.34,2013-03-26 18:55:00,
2013-03-26 13:00:00,49.4,14.1,29.88,NE,44,1.0,5.0,24,0.00,CLR,CLR,0.00,WeatherDisplay:10.34,2013-03-26 19:00:00,
2013-03-26 13:05:00,49.7,15.2,29.88,SSE,152,8.0,10.0,25,0.00,CLR,CLR,0.00,WeatherDisplay:10.34,2013-03-26 19:05:00,
2013-03-26 13:10:00,49.9,15.4,29.88,ENE,61,6.0,6.0,25,0.00,CLR,CLR,0.00,WeatherDisplay:10.34,2013-03-26 19:10:00,
2013-03-26 13:15:00,50.0,15.5,29.88,WNW,289,2.0,3.0,25,0.00,CLR,CLR,0.00,WeatherDisplay:10.34,2013-03-26 19:15:00,
2013-03-26 13:21:00,50.3,15.8,29.88,ENE,67,4.0,4.0,25,0.00,CLR,CLR,0.00,WeatherDisplay:10.34,2013-03-26 19:21:00,
2013-03-26 13:26:00,51.0,16.4,29.88,ENE,75,4.0,4.0,25,0.00,CLR,CLR,0.00,WeatherDisplay:10.34,2013-03-26 19:26:00,
2013-03-26 13:31:00,51.4,15.8,29.87,NE,36,5.0,9.0,24,0.00,CLR,CLR,0.00,WeatherDisplay:10.34,2013-03-26 19:31:00,
2013-03-26 13:36:00,51.3,15.7,29.87,NNE,15,6.0,7.0,24,0.00,CLR,CLR,0.00,WeatherDisplay:10.34,2013-03-26 19:36:00,
2013-03-26 13:41:00,51.5,15.8,29.87,NE,36,7.0,7.0,24,0.00,CLR,CLR,0.00,WeatherDisplay:10.34,2013-03-26 19:41:00,
2013-03-26 13:46:00,52.0,16.3,29.87,ENE,78,5.0,7.0,24,0.00,CLR,CLR,0.00,WeatherDisplay:10.34,2013-03-26 19:46:00,
2013-03-26 13:51:00,52.1,16.4,29.86,North,9,6.0,7.0,24,0.00,CLR,CLR,0.00,WeatherDisplay:10.34,2013-03-26 19:51:00,
2013-03-26 13:56:00,52.0,17.2,29.86,East,87,7.0,8.0,25,0.00,CLR,CLR,0.00,WeatherDisplay:10.34,2013-03-26 19:56:00,
2013-03-26 14:01:00,52.6,16.8,29.86,North,10,8.0,8.0,24,0.00,CLR,CLR,0.00,WeatherDisplay:10.34,2013-03-26 20:01:00,
2013-03-26 14:06:00,52.4,17.6,29.86,ENE,57,8.0,8.0,25,0.00,CLR,CLR,0.00,WeatherDisplay:10.34,2013-03-26 20:06:00,
2013-03-26 14:11:00,52.5,16.7,29.87,North,355,6.0,6.0,24,0.00,CLR,CLR,0.00,WeatherDisplay:10.34,2013-03-26 20:11:00,
2013-03-26 14:16:00,52.3,17.5,29.87,NNW,347,7.0,8.0,25,0.00,CLR,CLR,0.00,WeatherDisplay:10.34,2013-03-26 20:16:00,
2013-03-26 14:21:00,52.8,17.9,29.86,WNW,283,2.0,2.0,25,0.00,CLR,CLR,0.00,WeatherDisplay:10.34,2013-03-26 20:21:00,
2013-03-26 14:26:00,53.9,17.9,29.86,NE,50,5.0,7.0,24,0.00,CLR,CLR,0.00,WeatherDisplay:10.34,2013-03-26 20:26:00,
2013-03-26 14:31:00,54.1,18.1,29.86,East,80,3.0,3.0,24,0.00,CLR,CLR,0.00,WeatherDisplay:10.34,2013-03-26 20:31:00,
2013-03-26 14:36:00,54.0,18.0,29.85,ENE,74,12.0,12.0,24,0.00,CLR,CLR,0.00,WeatherDisplay:10.34,2013-03-26 20:36:00,
2013-03-26 14:41:00,53.8,17.8,29.85,ESE,113,13.0,13.0,24,0.00,CLR,CLR,0.00,WeatherDisplay:10.34,2013-03-26 20:41:00,
2013-03-26 14:46:00,52.7,16.9,29.85,SSE,150,5.0,5.0,24,0.00,CLR,CLR,0.00,WeatherDisplay:10.34,2013-03-26 20:46:00,
2013-03-26 14:51:00,52.4,17.6,29.85,ENE,68,5.0,7.0,25,0.00,CLR,CLR,0.00,WeatherDisplay:10.34,2013-03-26 20:51:00,
2013-03-26 14:56:00,53.1,18.2,29.85,NNW,340,3.0,7.0,25,0.00,CLR,CLR,0.00,WeatherDisplay:10.34,2013-03-26 20:56:00,
2013-03-26 15:01:00,53.2,17.3,29.84,ESE,105,5.0,5.0,24,0.00,CLR,CLR,0.00,WeatherDisplay:10.34,2013-03-26 21:01:00,
2013-03-26 15:06:00,52.8,16.9,29.84,SSE,163,3.0,3.0,24,0.00,CLR,CLR,0.00,WeatherDisplay:10.34,2013-03-26 21:06:00,
2013-03-26 15:11:00,52.2,17.4,29.84,East,80,3.0,3.0,25,0.00,CLR,CLR,0.00,WeatherDisplay:10.34,2013-03-26 21:11:00,
2013-03-26 15:16:00,52.9,17.0,29.84,ESE,109,3.0,3.0,24,0.00,CLR,CLR,0.00,WeatherDisplay:10.34,2013-03-26 21:16:00,
2013-03-26 15:21:00,52.7,17.8,29.84,NE,44,7.0,7.0,25,0.00,CLR,CLR,0.00,WeatherDisplay:10.34,2013-03-26 21:21:00,
2013-03-26 15:26:00,53.0,18.1,29.84,ENE,61,3.0,3.0,25,0.00,CLR,CLR,0.00,WeatherDisplay:10.34,2013-03-26 21:26:00,
2013-03-26 15:31:00,53.2,18.2,29.84,NNE,28,1.0,5.0,25,0.00,CLR,CLR,0.00,WeatherDisplay:10.34,2013-03-26 21:31:00,
2013-03-26 15:36:00,53.2,18.2,29.84,West,260,7.0,8.0,25,0.00,CLR,CLR,0.00,WeatherDisplay:10.34,2013-03-26 21:36:00,
2013-03-26 15:41:00,53.6,18.6,29.84,NE,45,6.0,6.0,25,0.00,CLR,CLR,0.00,WeatherDisplay:10.34,2013-03-26 21:41:00,
2013-03-26 15:46:00,54.1,18.1,29.84,ENE,71,3.0,3.0,24,0.00,CLR,CLR,0.00,WeatherDisplay:10.34,2013-03-26 21:46:00,
2013-03-26 15:51:00,54.2,18.1,29.84,NW,321,2.0,2.0,24,0.00,CLR,CLR,0.00,WeatherDisplay:10.34,2013-03-26 21:51:00,
2013-03-26 15:56:00,54.6,18.5,29.84,NNE,15,9.0,10.0,24,0.00,SCT,SCT,0.00,WeatherDisplay:10.34,2013-03-26 21:56:00,
2013-03-26 16:01:00,54.2,18.1,29.84,NE,35,5.0,5.0,24,0.00,FEW,FEW,0.00,WeatherDisplay:10.34,2013-03-26 22:01:00,
2013-03-26 16:06:00,54.1,18.1,29.84,NE,36,6.0,7.0,24,0.00,CLR,CLR,0.00,WeatherDisplay:10.34,2013-03-26 22:06:00,
2013-03-26 16:11:00,53.9,17.9,29.83,ESE,116,10.0,10.0,24,0.00,CLR,CLR,0.00,WeatherDisplay:10.34,2013-03-26 22:11:00,
2013-03-26 16:16:00,53.8,18.7,29.83,SE,126,6.0,7.0,25,0.00,CLR,CLR,0.00,WeatherDisplay:10.34,2013-03-26 22:16:00,
2013-03-26 16:21:00,53.8,17.8,29.83,NE,47,7.0,7.0,24,0.00,CLR,CLR,0.00,WeatherDisplay:10.34,2013-03-26 22:21:00,
2013-03-26 16:26:00,54.0,18.9,29.83,NE,55,6.0,6.0,25,0.00,CLR,CLR,0.00,WeatherDisplay:10.34,2013-03-26 22:26:00,
2013-03-26 16:31:00,53.7,17.7,29.83,East,84,4.0,4.0,24,0.00,OVC,OVC,0.00,WeatherDisplay:10.34,2013-03-26 22:31:00,
2013-03-26 16:36:00,53.0,18.1,29.83,NE,34,3.0,3.0,25,0.00,OVC,OVC,0.00,WeatherDisplay:10.34,2013-03-26 22:36:00,
2013-03-26 16:41:00,52.3,18.4,29.83,NNW,343,3.0,3.0,26,0.00,OVC,OVC,0.00,WeatherDisplay:10.34,2013-03-26 22:41:00,
2013-03-26 16:46:00,51.7,17.9,29.83,NNW,348,5.0,5.0,26,0.00,BKN,BKN,0.00,WeatherDisplay:10.34,2013-03-26 22:46:00,
2013-03-26 16:51:00,51.7,17.9,29.83,NE,35,9.0,9.0,26,0.00,CLR,CLR,0.00,WeatherDisplay:10.34,2013-03-26 22:51:00,
2013-03-26 16:56:00,51.7,17.9,29.83,NE,46,6.0,7.0,26,0.00,BKN,BKN,0.00,WeatherDisplay:10.34,2013-03-26 22:56:00,
2013-03-26 17:01:00,51.1,18.2,29.83,North,350,6.0,6.0,27,0.00,OVC,OVC,0.00,WeatherDisplay:10.34,2013-03-26 23:01:00,
2013-03-26 17:06:00,50.7,17.9,29.83,North,355,11.0,11.0,27,0.00,BKN,BKN,0.00,WeatherDisplay:10.34,2013-03-26 23:06:00,
2013-03-26 17:11:00,50.2,17.5,29.83,NW,321,1.0,1.0,27,0.00,FEW,FEW,0.00,WeatherDisplay:10.34,2013-03-26 23:11:00,
2013-03-26 17:16:00,50.6,17.8,29.83,North,360,1.0,1.0,27,0.00,CLR,CLR,0.00,WeatherDisplay:10.34,2013-03-26 23:16:00,
2013-03-26 17:21:00,51.4,17.6,29.83,ESE,107,6.0,8.0,26,0.00,CLR,CLR,0.00,WeatherDisplay:10.34,2013-03-26 23:21:00,
2013-03-26 17:26:00,51.9,18.0,29.83,East,92,11.0,11.0,26,0.00,CLR,CLR,0.00,WeatherDisplay:10.34,2013-03-26 23:26:00,
2013-03-26 17:31:00,52.0,18.1,29.84,NNE,15,5.0,8.0,26,0.00,CLR,CLR,0.00,WeatherDisplay:10.34,2013-03-26 23:31:00,
2013-03-26 17:36:00,52.1,17.3,29.84,East,82,5.0,5.0,25,0.00,CLR,CLR,0.00,WeatherDisplay:10.34,2013-03-26 23:36:00,
2013-03-26 17:41:00,52.1,17.3,29.84,NE,45,11.0,13.0,25,0.00,CLR,CLR,0.00,WeatherDisplay:10.34,2013-03-26 23:41:00,
2013-03-26 17:46:00,52.1,17.3,29.84,East,83,13.0,13.0,25,0.00,CLR,CLR,0.00,WeatherDisplay:10.34,2013-03-26 23:46:00,
2013-03-26 17:51:00,51.9,18.0,29.84,ENE,70,8.0,14.0,26,0.00,CLR,CLR,0.00,WeatherDisplay:10.34,2013-03-26 23:51:00,
2013-03-26 17:56:00,51.8,17.0,29.84,North,360,10.0,10.0,25,0.00,CLR,CLR,0.00,WeatherDisplay:10.34,2013-03-26 23:56:00,
2013-03-26 18:01:00,51.6,16.9,29.84,NE,45,5.0,7.0,25,0.00,CLR,CLR,0.00,WeatherDisplay:10.34,2013-03-27 00:01:00,
2013-03-26 18:06:00,51.4,16.7,29.84,North,360,4.0,8.0,25,0.00,CLR,CLR,0.00,WeatherDisplay:10.34,2013-03-27 00:06:00,
2013-03-26 18:11:00,51.2,16.5,29.84,NNE,20,8.0,10.0,25,0.00,CLR,CLR,0.00,WeatherDisplay:10.34,2013-03-27 00:11:00,
2013-03-26 18:16:00,50.8,17.1,29.84,NNE,29,9.0,9.0,26,0.00,CLR,CLR,0.00,WeatherDisplay:10.34,2013-03-27 00:16:00,
2013-03-26 18:21:00,50.5,16.8,29.84,NE,54,8.0,9.0,26,0.00,CLR,CLR,0.00,WeatherDisplay:10.34,2013-03-27 00:21:00,
2013-03-26 18:26:00,50.4,16.8,29.84,NNE,33,4.0,5.0,26,0.00,CLR,CLR,0.00,WeatherDisplay:10.34,2013-03-27 00:26:00,
2013-03-26 18:31:00,50.2,16.6,29.85,ENE,59,6.0,6.0,26,0.00,CLR,CLR,0.00,WeatherDisplay:10.34,2013-03-27 00:31:00,
2013-03-26 18:36:00,50.3,16.7,29.85,NNE,22,4.0,5.0,26,0.00,CLR,CLR,0.00,WeatherDisplay:10.34,2013-03-27 00:36:00,
2013-03-26 18:41:00,50.2,16.6,29.85,NE,49,6.0,6.0,26,0.00,CLR,CLR,0.00,WeatherDisplay:10.34,2013-03-27 00:41:00,
2013-03-26 18:46:00,50.0,16.4,29.85,ENE,57,5.0,7.0,26,0.00,CLR,CLR,0.00,WeatherDisplay:10.34,2013-03-27 00:46:00,
2013-03-26 18:51:00,49.7,16.2,29.85,NNE,17,4.0,5.0,26,0.00,CLR,CLR,0.00,WeatherDisplay:10.34,2013-03-27 00:51:00,
2013-03-26 18:56:00,49.3,15.8,29.85,NE,51,9.0,9.0,26,0.00,CLR,CLR,0.00,WeatherDisplay:10.34,2013-03-27 00:56:00,
2013-03-26 19:01:00,48.6,15.2,29.85,NNE,24,5.0,5.0,26,0.00,FEW,FEW,0.00,WeatherDisplay:10.34,2013-03-27 01:01:00,
2013-03-26 19:07:00,48.0,14.7,29.85,NNE,25,5.0,5.0,26,0.00,CLR,CLR,0.00,WeatherDisplay:10.34,2013-03-27 01:07:00,
2013-03-26 19:12:00,47.4,15.0,29.85,ENE,61,5.0,5.0,27,0.00,CLR,CLR,0.00,WeatherDisplay:10.34,2013-03-27 01:12:00,
2013-03-26 19:17:00,47.0,14.7,29.85,NNE,28,4.0,5.0,27,0.00,CLR,CLR,0.00,WeatherDisplay:10.34,2013-03-27 01:17:00,
2013-03-26 19:22:00,46.7,14.4,29.85,NNE,32,5.0,5.0,27,0.00,CLR,CLR,0.00,WeatherDisplay:10.34,2013-03-27 01:22:00,
2013-03-26 19:27:00,46.2,14.0,29.85,NNE,22,5.0,8.0,27,0.00,OVC,OVC,0.00,WeatherDisplay:10.34,2013-03-27 01:27:00,
2013-03-26 19:32:00,45.8,14.5,29.86,NNE,16,2.0,3.0,28,0.00,OVC,OVC,0.00,WeatherDisplay:10.34,2013-03-27 01:32:00,
2013-03-26 19:37:00,45.4,14.1,29.86,NNE,14,1.0,5.0,28,0.00,OVC,OVC,0.00,WeatherDisplay:10.34,2013-03-27 01:37:00,
2013-03-26 19:42:00,45.0,13.8,29.86,NNE,28,4.0,5.0,28,0.00,OVC,OVC,0.00,WeatherDisplay:10.34,2013-03-27 01:42:00,
2013-03-26 19:47:00,44.7,14.3,29.86,North,11,3.0,3.0,29,0.00,OVC,OVC,0.00,WeatherDisplay:10.34,2013-03-27 01:47:00,
2013-03-26 19:52:00,44.3,14.0,29.86,NNE,28,3.0,3.0,29,0.00,OVC,OVC,0.00,WeatherDisplay:10.34,2013-03-27 01:52:00,
2013-03-26 19:57:00,44.0,13.7,29.86,NNE,17,3.0,3.0,29,0.00,OVC,OVC,0.00,WeatherDisplay:10.34,2013-03-27 01:57:00,
2013-03-26 20:02:00,43.8,13.6,29.86,NNE,15,2.0,2.0,29,0.00,CLR,CLR,0.00,WeatherDisplay:10.34,2013-03-27 02:02:00,
2013-03-26 20:07:00,43.6,13.4,29.86,NNE,14,1.0,1.0,29,0.00,CLR,CLR,0.00,WeatherDisplay:10.34,2013-03-27 02:07:00,
2013-03-26 20:12:00,43.3,13.1,29.86,NNE,15,0.0,0.0,29,0.00,CLR,CLR,0.00,WeatherDisplay:10.34,2013-03-27 02:12:00,
2013-03-26 20:17:00,43.1,12.9,29.86,NNE,15,1.0,1.0,29,0.00,CLR,CLR,0.00,WeatherDisplay:10.34,2013-03-27 02:17:00,
2013-03-26 20:22:00,42.7,12.6,29.86,NNE,15,0.0,1.0,29,0.00,CLR,CLR,0.00,WeatherDisplay:10.34,2013-03-27 02:22:00,
2013-03-26 20:27:00,42.4,12.3,29.86,NNE,15,0.0,0.0,29,0.00,CLR,CLR,0.00,WeatherDisplay:10.34,2013-03-27 02:27:00,
2013-03-26 20:32:00,42.1,12.8,29.86,NNE,15,0.0,0.0,30,0.00,CLR,CLR,0.00,WeatherDisplay:10.34,2013-03-27 02:32:00,
2013-03-26 20:37:00,41.8,12.6,29.86,NNE,14,0.0,0.0,30,0.00,CLR,CLR,0.00,WeatherDisplay:10.34,2013-03-27 02:37:00,
2013-03-26 20:42:00,41.3,12.1,29.87,NNE,14,0.0,0.0,30,0.00,CLR,CLR,0.00,WeatherDisplay:10.34,2013-03-27 02:42:00,
2013-03-26 20:47:00,40.9,11.8,29.87,NNE,15,0.0,0.0,30,0.00,CLR,CLR,0.00,WeatherDisplay:10.34,2013-03-27 02:47:00,
2013-03-26 20:52:00,40.2,8.8,29.87,NNE,14,0.0,0.0,27,0.00,CLR,CLR,0.00,WeatherDisplay:10.34,2013-03-27 02:52:00,
2013-03-26 20:57:00,39.5,8.2,29.87,NNE,15,0.0,0.0,27,0.00,CLR,CLR,0.00,WeatherDisplay:10.34,2013-03-27 02:57:00,
2013-03-26 21:02:00,38.8,7.6,29.87,NNE,15,0.0,0.0,27,0.00,CLR,CLR,0.00,WeatherDisplay:10.34,2013-03-27 03:02:00,
2013-03-26 21:07:00,37.9,6.0,29.87,WNW,289,3.0,3.0,26,0.00,CLR,CLR,0.00,WeatherDisplay:10.34,2013-03-27 03:07:00,
2013-03-26 21:12:00,36.7,5.8,29.88,WNW,288,3.0,3.0,27,0.00,CLR,CLR,0.00,WeatherDisplay:10.34,2013-03-27 03:12:00,
2013-03-26 21:17:00,35.5,7.1,29.88,SW,235,3.0,3.0,30,0.00,CLR,CLR,0.00,WeatherDisplay:10.34,2013-03-27 03:17:00,
2013-03-26 21:22:00,34.6,7.0,29.88,SW,235,0.0,1.0,31,0.00,CLR,CLR,0.00,WeatherDisplay:10.34,2013-03-27 03:22:00,
2013-03-26 21:27:00,34.1,6.6,29.88,SW,235,3.0,3.0,31,0.00,CLR,CLR,0.00,WeatherDisplay:10.34,2013-03-27 03:27:00,
2013-03-26 21:32:00,33.4,5.2,29.88,NE,41,6.0,8.0,30,0.00,CLR,CLR,0.00,WeatherDisplay:10.34,2013-03-27 03:32:00,
2013-03-26 21:37:00,32.6,7.9,29.88,SE,131,1.0,2.0,35,0.00,CLR,CLR,0.00,WeatherDisplay:10.34,2013-03-27 03:37:00,
2013-03-26 21:42:00,32.4,9.0,29.89,NE,44,0.0,0.0,37,0.00,CLR,CLR,0.00,WeatherDisplay:10.34,2013-03-27 03:42:00,
2013-03-26 21:47:00,32.4,9.0,29.89,NE,44,0.0,0.0,37,0.00,CLR,CLR,0.00,WeatherDisplay:10.34,2013-03-27 03:47:00,
2013-03-26 21:52:00,32.5,9.7,29.89,NE,44,0.0,0.0,38,0.00,CLR,CLR,0.00,WeatherDisplay:10.34,2013-03-27 03:52:00,
2013-03-26 21:57:00,32.7,9.8,29.89,NE,44,1.0,1.0,38,0.00,CLR,CLR,0.00,WeatherDisplay:10.34,2013-03-27 03:57:00,
2013-03-26 22:00:00,32.8,9.9,29.89,NE,44,0.0,1.0,38,0.00,CLR,CLR,0.00,WeatherDisplay:10.34,2013-03-27 04:00:00,
2013-03-26 22:01:00,32.8,9.3,29.89,NE,44,1.0,2.0,37,0.00,CLR,CLR,0.00,WeatherDisplay:10.34,2013-03-27 04:01:00,
2013-03-26 22:04:00,32.7,6.7,29.89,SW,222,4.0,5.0,33,0.00,CLR,CLR,0.00,WeatherDisplay:10.34,2013-03-27 04:04:00,
2013-03-26 22:09:00,32.5,8.5,29.89,SW,222,2.0,2.0,36,0.00,CLR,CLR,0.00,WeatherDisplay:10.34,2013-03-27 04:09:00,
2013-03-26 22:14:00,32.3,7.7,29.89,SW,222,2.0,3.0,35,0.00,CLR,CLR,0.00,WeatherDisplay:10.34,2013-03-27 04:14:00,
2013-03-26 22:19:00,32.2,6.9,29.89,SW,222,3.0,3.0,34,0.00,CLR,CLR,0.00,WeatherDisplay:10.34,2013-03-27 04:19:00,
2013-03-26 22:24:00,31.9,6.0,29.89,SW,222,2.0,2.0,33,0.00,CLR,CLR,0.00,WeatherDisplay:10.34,2013-03-27 04:24:00,
2013-03-26 22:29:00,31.4,5.6,29.89,SW,222,2.0,2.0,33,0.00,CLR,CLR,0.00,WeatherDisplay:10.34,2013-03-27 04:29:00,
2013-03-26 22:34:00,31.0,6.5,29.89,SW,222,2.0,2.0,35,0.00,CLR,CLR,0.00,WeatherDisplay:10.34,2013-03-27 04:34:00,
2013-03-26 22:39:00,30.7,6.9,29.89,SW,222,1.0,1.0,36,0.00,CLR,CLR,0.00,WeatherDisplay:10.34,2013-03-27 04:39:00,
2013-03-26 22:44:00,30.4,6.6,29.89,SW,222,0.0,0.0,36,0.00,CLR,CLR,0.00,WeatherDisplay:10.34,2013-03-27 04:44:00,
2013-03-26 22:49:00,30.2,5.2,29.89,SW,222,0.0,0.0,34,0.00,CLR,CLR,0.00,WeatherDisplay:10.34,2013-03-27 04:49:00,
2013-03-26 22:54:00,29.9,5.5,29.89,SW,222,0.0,0.0,35,0.00,CLR,CLR,0.00,WeatherDisplay:10.34,2013-03-27 04:54:00,
2013-03-26 22:59:00,29.5,4.5,29.89,SW,222,3.0,3.0,34,0.00,CLR,CLR,0.00,WeatherDisplay:10.34,2013-03-27 04:59:00,
2013-03-26 23:04:00,28.7,3.8,29.90,SW,222,5.0,5.0,34,0.00,CLR,CLR,0.00,WeatherDisplay:10.34,2013-03-27 05:04:00,
2013-03-26 23:09:00,28.0,5.6,29.90,SW,222,1.0,1.0,38,0.00,CLR,CLR,0.00,WeatherDisplay:10.34,2013-03-27 05:09:00,
2013-03-26 23:14:00,27.6,4.7,29.90,SW,222,0.0,1.0,37,0.00,CLR,CLR,0.00,WeatherDisplay:10.34,2013-03-27 05:14:00,
2013-03-26 23:19:00,27.3,4.4,29.90,SW,222,3.0,3.0,37,0.00,CLR,CLR,0.00,WeatherDisplay:10.34,2013-03-27 05:19:00,
2013-03-26 23:25:00,27.1,4.8,29.90,SW,222,3.0,3.0,38,0.00,CLR,CLR,0.00,WeatherDisplay:10.34,2013-03-27 05:25:00,
2013-03-26 23:30:00,27.0,4.1,29.90,SW,222,0.0,1.0,37,0.00,CLR,CLR,0.00,WeatherDisplay:10.34,2013-03-27 05:30:00,
2013-03-26 23:35:00,26.8,5.1,29.90,SW,222,3.0,3.0,39,0.00,CLR,CLR,0.00,WeatherDisplay:10.34,2013-03-27 05:35:00,
2013-03-26 23:40:00,26.7,6.1,29.90,SW,222,4.0,0.0,41,0.00,CLR,CLR,0.00,WeatherDisplay:10.34,2013-03-27 05:40:00,
2013-03-26 23:45:00,26.7,5.0,29.90,SW,222,1.0,2.0,39,0.00,CLR,CLR,0.00,WeatherDisplay:10.34,2013-03-27 05:45:00,
2013-03-26 23:50:00,26.6,4.9,29.90,SW,222,3.0,0.0,39,0.00,CLR,CLR,0.00,WeatherDisplay:10.34,2013-03-27 05:50:00,
2013-03-26 23:55:00,26.6,4.9,29.90,SW,222,0.0,0.0,39,0.00,CLR,CLR,0.00,WeatherDisplay:10.34,2013-03-27 05:55:00,